Terminal Aerodrome Forecast
Issued by NWS

Home | Current Version | Previous Version | Text Only | Print | Product List | Glossary On
Versions: 1 2 3 4 5 6 7 8 9 10 11 12 13 14 15 16 17
000
FTUS41 KGYX 271120
TAFMHT
TAF
KMHT 271120Z 2712/2812 19008KT P6SM SCT040 BKN100 PROB30 2721/2802
      2SM -TSRA BKN030CB
     FM280500 27004KT P6SM FEW100 SCT250=

USA.gov is the U.S. government's official web portal to all federal, state and local government web resources and services.